GW4151 Weather Reports


Display with metric or nautical units.
time (UTC)temp
F
wind
direction
speed
MPH
gust
MPH
rain 1hr
in
rain 24hr
in
rain mn
in
humidity
%
barometer
mb
20260902124454 76 196 0.0 2.0 0.00 0.00 0.00 93 994.1
20260902122949 75 156 0.0 0.0 0.00 0.00 0.00 95 994.5
20260902121447 74 173 1.0 1.0 0.00 0.00 0.00 97 994.2
20260902115943 73 172 0.0 0.0 0.00 0.00 0.00 98 994.6
20260902114443 73 180 0.0 0.0 0.00 0.00 0.00 98 994.6
20260902112939 73 210 0.0 1.0 0.00 0.00 0.00 98 994.6
20260902111440 73 183 0.0 0.0 0.00 0.00 0.00 97 994.6
20260902105937 74 183 0.0 0.0 0.00 0.00 0.00 96 994.2
20260902104434 75 212 1.0 1.0 0.00 0.00 0.00 95 994.3
20260902102930 75 203 0.0 1.0 0.00 0.00 0.00 95 994.0
20260902101429 75 201 0.0 1.0 0.00 0.00 0.00 94 994.2
20260902095924 75 197 0.0 2.0 0.00 0.00 0.00 95 994.3
20260902094420 75 219 0.0 2.0 0.00 0.00 0.00 94 994.1
20260902092920 76 201 0.0 0.0 0.00 0.00 0.00 94 994.3
20260902091417 76 237 0.0 0.0 0.00 0.00 0.00 94 994.5
20260902085912 76 189 0.0 2.0 0.00 0.00 0.00 92 994.4
20260902084411 77 192 1.0 2.0 0.00 0.00 0.00 92 993.8
20260902082907 77 197 1.0 1.0 0.00 0.00 0.00 91 993.7
20260902081407 77 211 2.0 6.0 0.00 0.00 0.00 91 993.7
20260902075903 78 234 2.0 4.0 0.00 0.00 0.00 90 993.5
20260902074402 78 209 1.0 4.0 0.00 0.00 0.00 90 993.8
20260902072900 78 249 1.0 3.0 0.00 0.00 0.00 90 993.8
20260902071358 78 174 0.0 1.0 0.00 0.00 0.00 91 993.8
20260902065854 78 219 2.0 2.0 0.00 0.00 0.00 92 993.9
20260902064353 78 213 1.0 2.0 0.00 0.00 0.00 93 993.7
20260902062848 77 224 0.0 1.0 0.00 0.00 0.00 95 993.8
20260902061348 77 234 0.0 0.0 0.00 0.00 0.00 96 993.7
20260902055847 77 195 0.0 0.0 0.00 0.00 0.00 96 993.7
20260902054346 76 186 0.0 0.0 0.00 0.00 0.00 98 993.5
20260902052841 76 197 0.0 0.0 0.00 0.00 0.00 98 993.6
20260902051337 77 178 0.0 0.0 0.00 0.00 0.00 97 993.6
20260902045838 77 192 0.0 0.0 0.00 0.00 0.00 97 993.8
20260902044337 77 172 0.0 3.0 0.00 0.00 0.00 96 993.9
20260902042832 77 158 2.0 3.0 0.00 0.00 0.00 96 993.7
20260902041327 76 166 0.0 0.0 0.00 0.00 0.00 95 993.8
20260902035826 75 232 3.0 3.0 0.00 0.01 0.01 97 993.7
20260902034322 74 212 1.0 1.0 0.00 0.00 0.00 97 994.1
20260902032820 74 182 0.0 0.0 0.00 0.00 0.00 98 994.0
20260902031317 74 142 0.0 0.0 0.00 0.00 0.00 98 993.8
20260902025812 74 128 0.0 0.0 0.00 0.00 0.00 98 993.9
20260902024309 74 166 0.0 0.0 0.00 0.00 0.00 97 994.0
20260902022805 74 171 0.0 0.0 0.00 0.00 0.00 97 994.1
20260902021302 74 180 0.0 0.0 0.00 0.00 0.00 97 994.1
20260902015801 74 182 0.0 1.0 0.00 0.00 0.00 97 994.0
20260902014302 74 174 0.0 0.0 0.00 0.00 0.00 96 993.9
20260902012757 75 172 0.0 0.0 0.00 0.00 0.00 96 993.9
20260902011254 75 191 0.0 0.0 0.00 0.00 0.00 96 993.7
20260902005753 75 170 0.0 0.0 0.00 0.00 0.00 95 993.4
20260902004250 75 159 0.0 0.0 0.00 0.00 0.00 95 993.1
20260902002748 76 186 0.0 1.0 0.00 0.00 0.00 94 993.2
20260902001243 76 205 1.0 1.0 0.00 0.00 0.00 92 993.5
20260901235738 76 221 0.0 1.0 0.00 0.00 0.00 91 994.1
20260901234233 77 242 1.0 3.0 0.00 0.00 0.00 90 994.1
20260901232730 78 274 5.0 6.0 0.00 0.00 0.00 87 993.9
20260901231229 80 173 3.0 6.0 0.00 0.00 0.00 85 994.3
20260901225726 80 208 3.0 6.0 0.00 0.00 0.00 86 994.5
20260901224224 81 228 1.0 2.0 0.00 0.00 0.00 85 994.0
20260901222722 81 196 1.0 4.0 0.00 0.00 0.00 84 994.0
20260901221221 82 178 1.0 4.0 0.00 0.00 0.00 83 993.6
20260901215719 83 200 3.0 6.0 0.00 0.00 0.00 82 994.5
20260901214217 83 241 2.0 6.0 0.00 0.00 0.00 81 994.3
20260901212718 83 278 5.0 6.0 0.00 0.00 0.00 79 994.4
20260901211216 84 237 3.0 4.0 0.00 0.00 0.00 77 994.4
20260901205714 86 239 6.0 9.0 0.00 0.00 0.00 75 994.3
20260901204211 86 298 6.0 8.0 0.00 0.00 0.00 75 994.1
20260901202706 87 259 3.0 8.0 0.00 0.00 0.00 74 994.0
20260901201203 88 257 8.0 10.0 0.00 0.00 0.00 73 994.1
20260901195701 87 236 5.0 6.0 0.00 0.00 0.00 76 994.0
20260901194158 89 224 7.0 10.0 0.00 0.00 0.00 74 993.9
20260901192654 90 255 3.0 9.0 0.00 0.00 0.00 73 993.9
20260901191153 88 178 2.0 6.0 0.00 0.00 0.00 75 993.9
20260901185653 88 202 3.0 4.0 0.00 0.00 0.00 75 994.3
20260901184148 86 267 4.0 7.0 0.00 0.00 0.00 78 994.6
20260901182646 86 187 3.0 4.0 0.00 0.00 0.00 78 994.4
20260901181145 84 215 3.0 4.0 0.00 0.00 0.00 81 994.1
20260901175644 84 197 1.0 4.0 0.00 0.00 0.00 81 994.4
20260901174142 83 257 3.0 10.0 0.00 0.00 0.00 82 995.1
20260901172639 85 239 2.0 6.0 0.00 0.00 0.00 79 994.9
20260901171136 86 285 3.0 8.0 0.00 0.00 0.00 77 994.8
20260901165636 85 199 2.0 8.0 0.00 0.00 0.00 79 994.7
20260901164134 84 244 4.0 6.0 0.00 0.00 0.00 81 994.5
20260901162630 85 279 5.0 8.0 0.00 0.00 0.00 80 994.6
20260901161127 86 234 3.0 4.0 0.00 0.00 0.00 79 994.5
20260901155623 85 293 5.0 7.0 0.00 0.00 0.00 80 994.5
20260901154120 83 264 4.0 6.0 0.00 0.00 0.00 81 994.7
20260901152616 85 279 2.0 4.0 0.00 0.00 0.00 79 994.5
20260901151115 84 282 4.0 8.0 0.00 0.00 0.00 80 994.4
20260901145612 82 264 3.0 6.0 0.00 0.00 0.00 82 994.5
20260901144108 82 207 1.0 3.0 0.00 0.00 0.00 83 994.7
20260901142607 83 257 4.0 8.0 0.00 0.00 0.00 82 994.8
20260901141102 82 171 1.0 3.0 0.00 0.00 0.00 84 994.6
20260901135600 81 190 3.0 7.0 0.00 0.00 0.00 84 994.5
20260901134058 81 223 2.0 3.0 0.00 0.00 0.00 84 994.6
20260901132556 79 185 0.0 2.0 0.00 0.00 0.00 87 994.6
20260901131057 78 186 0.0 3.0 0.00 0.00 0.00 87 994.5